VLG5RC GCFV-LEBL

Flight info

Callsign VLG5RC
Flight time 2h 30m
Altitude 34000
Route KORAL UG5 SONSO DCT NIRAL UN871 OSDAM UM985 BARPA DCT XAVIR DCT PIMOS DCT RIXUR DCT PEPAS DCT ARPEX DCT KOSEL DCT BUDIT DCT ETURA DCT TOSTO DCT OLPOS DCT BEGOX DCT VLC L34 CASIM DCT MATEX
Aircraft A321/M-SDE3FGHIRWY/LB1

Departure

Time 2026-05-07 15:54
Airport Fuerteventura Airport (GCFV)

Arrival

Time 2026-05-07 18:25
Airport Josep Tarradellas Barcelona-El Prat Airport (LEBL)
Time Latitude Longitude Altitude Speed Heading
2026-05-07 15:11 28.45270 -13.86835 99 ft 0 kts 271°
2026-05-07 15:44 28.45270 -13.86833 99 ft 2 kts 271°
2026-05-07 15:45 28.45269 -13.86803 99 ft 4 kts 271°
2026-05-07 15:45 28.45270 -13.86778 99 ft 4 kts 260°
2026-05-07 15:45 28.45279 -13.86752 97 ft 4 kts 223°
2026-05-07 15:45 28.45301 -13.86738 99 ft 4 kts 187°
2026-05-07 15:46 28.45311 -13.86737 99 ft 0 kts 181°
2026-05-07 15:48 28.45307 -13.86737 98 ft 1 kts 181°
2026-05-07 15:48 28.45286 -13.86737 98 ft 5 kts 181°
2026-05-07 15:49 28.45241 -13.86739 100 ft 8 kts 182°
2026-05-07 15:49 28.45173 -13.86742 99 ft 11 kts 182°
2026-05-07 15:49 28.45102 -13.86701 98 ft 14 kts 106°
2026-05-07 15:49 28.45079 -13.86588 96 ft 17 kts 141°
2026-05-07 15:50 28.44951 -13.86580 97 ft 20 kts 181°
2026-05-07 15:50 28.44791 -13.86585 85 ft 27 kts 181°
2026-05-07 15:50 28.44575 -13.86592 63 ft 33 kts 182°
2026-05-07 15:50 28.44338 -13.86600 62 ft 35 kts 181°
2026-05-07 15:51 28.44086 -13.86609 56 ft 37 kts 181°
2026-05-07 15:51 28.43817 -13.86616 45 ft 40 kts 181°
2026-05-07 15:51 28.43602 -13.86624 40 ft 30 kts 181°
2026-05-07 15:51 28.43406 -13.86630 35 ft 25 kts 182°
2026-05-07 15:52 28.43310 -13.86599 33 ft 15 kts 116°
2026-05-07 15:52 28.43304 -13.86504 34 ft 5 kts 91°
2026-05-07 15:52 28.43304 -13.86462 34 ft 5 kts 82°
2026-05-07 15:52 28.43334 -13.86440 34 ft 6 kts 13°
2026-05-07 15:53 28.43378 -13.86438 34 ft 7 kts
2026-05-07 15:53 28.43488 -13.86435 33 ft 40 kts
2026-05-07 15:53 28.43692 -13.86425 32 ft 74 kts
2026-05-07 15:53 28.43832 -13.86415 33 ft 89 kts
2026-05-07 15:54 28.44634 -13.86375 92 ft 136 kts
2026-05-07 15:54 28.45609 -13.86389 490 ft 145 kts
2026-05-07 15:54 28.46635 -13.86344 1067 ft 147 kts
2026-05-07 15:54 28.47625 -13.85988 1637 ft 152 kts 21°
2026-05-07 15:55 28.48578 -13.85438 2122 ft 155 kts 24°
2026-05-07 15:55 28.49546 -13.84850 2492 ft 165 kts 25°
2026-05-07 15:55 28.50626 -13.84198 2656 ft 187 kts 24°
2026-05-07 15:55 28.51844 -13.83468 2806 ft 208 kts 25°
2026-05-07 15:56 28.53176 -13.82671 3114 ft 222 kts 25°
2026-05-07 15:56 28.54568 -13.81839 3572 ft 234 kts 25°
2026-05-07 15:56 28.56079 -13.80944 3690 ft 259 kts 25°
2026-05-07 15:56 28.57921 -13.79861 2762 ft 326 kts 25°
2026-05-07 15:57 28.59992 -13.78629 2350 ft 362 kts 27°
2026-05-07 15:57 28.62186 -13.77235 2333 ft 358 kts 27°
2026-05-07 15:57 28.64237 -13.75808 3182 ft 341 kts 31°
2026-05-07 15:57 28.66211 -13.74316 3518 ft 329 kts 31°
2026-05-07 15:58 28.68062 -13.72938 4224 ft 307 kts 28°
2026-05-07 15:58 28.69946 -13.72009 5533 ft 285 kts 17°
2026-05-07 15:58 28.71784 -13.71314 6592 ft 276 kts 14°
2026-05-07 15:58 28.73612 -13.70621 7236 ft 279 kts 15°
2026-05-07 15:59 28.75457 -13.69860 7792 ft 285 kts 17°
2026-05-07 15:59 28.77320 -13.69020 8354 ft 291 kts 19°
2026-05-07 15:59 28.79199 -13.68119 8936 ft 296 kts 20°
2026-05-07 15:59 28.81104 -13.67170 9496 ft 302 kts 20°
2026-05-07 16:00 28.83038 -13.66183 10032 ft 307 kts 21°
2026-05-07 16:00 28.85031 -13.65158 10272 ft 324 kts 21°
2026-05-07 16:00 28.87123 -13.64086 10411 ft 344 kts 21°
2026-05-07 16:00 28.89364 -13.62942 10551 ft 361 kts 21°
2026-05-07 16:01 28.91684 -13.61758 10936 ft 369 kts 21°
2026-05-07 16:01 28.94045 -13.60552 11445 ft 374 kts 21°
2026-05-07 16:01 28.96451 -13.59376 11948 ft 378 kts 19°
2026-05-07 16:01 28.98918 -13.58292 12464 ft 382 kts 17°
2026-05-07 16:02 29.01434 -13.57260 12959 ft 386 kts 16°
2026-05-07 16:02 29.03985 -13.56243 13467 ft 390 kts 16°
2026-05-07 16:02 29.06564 -13.55216 13962 ft 395 kts 16°
2026-05-07 16:02 29.09166 -13.54165 14423 ft 398 kts 16°
2026-05-07 16:03 29.11789 -13.53092 14906 ft 402 kts 17°
2026-05-07 16:03 29.14367 -13.51792 15396 ft 409 kts 27°
2026-05-07 16:03 29.16724 -13.49922 15855 ft 416 kts 39°
2026-05-07 16:03 29.18744 -13.47524 16328 ft 421 kts 51°
2026-05-07 16:04 29.20440 -13.44772 16774 ft 425 kts 55°
2026-05-07 16:04 29.22128 -13.41978 17217 ft 429 kts 54°
2026-05-07 16:04 29.23839 -13.39170 17650 ft 433 kts 54°
2026-05-07 16:04 29.25572 -13.36332 18089 ft 437 kts 54°
2026-05-07 16:05 29.27319 -13.33469 18495 ft 440 kts 54°
2026-05-07 16:05 29.29082 -13.30586 18885 ft 443 kts 54°
2026-05-07 16:05 29.30859 -13.27686 19293 ft 446 kts 54°
2026-05-07 16:05 29.32647 -13.24767 19692 ft 449 kts 54°
2026-05-07 16:06 29.34445 -13.21828 20090 ft 452 kts 54°
2026-05-07 16:06 29.36252 -13.18866 20518 ft 455 kts 54°
2026-05-07 16:06 29.38067 -13.15882 20924 ft 458 kts 54°
2026-05-07 16:06 29.39891 -13.12878 21315 ft 460 kts 54°
2026-05-07 16:07 29.41727 -13.09855 21701 ft 463 kts 54°
2026-05-07 16:07 29.43572 -13.06818 22091 ft 466 kts 54°
2026-05-07 16:07 29.45406 -13.03801 22447 ft 468 kts 54°
2026-05-07 16:07 29.47273 -13.00725 22845 ft 471 kts 54°
2026-05-07 16:08 29.49152 -12.97631 23196 ft 474 kts 54°
2026-05-07 16:08 29.51041 -12.94515 23528 ft 477 kts 54°
2026-05-07 16:08 29.52940 -12.91380 23828 ft 479 kts 54°
2026-05-07 16:08 29.54847 -12.88229 24129 ft 481 kts 54°
2026-05-07 16:09 29.56761 -12.85063 24435 ft 483 kts 54°
2026-05-07 16:09 29.58677 -12.81887 24725 ft 485 kts 54°
2026-05-07 16:09 29.60607 -12.78685 25021 ft 487 kts 54°
2026-05-07 16:09 29.62536 -12.75481 25306 ft 489 kts 54°
2026-05-07 16:10 29.64475 -12.72258 25589 ft 491 kts 54°
2026-05-07 16:10 29.66422 -12.69022 25883 ft 493 kts 54°
2026-05-07 16:10 29.67718 -12.66869 26064 ft 494 kts 53°
2026-05-07 16:10 29.69674 -12.63613 26342 ft 496 kts 54°
2026-05-07 16:11 29.71638 -12.60338 26610 ft 498 kts 53°
2026-05-07 16:11 29.73611 -12.57051 26886 ft 500 kts 53°
2026-05-07 16:11 29.75586 -12.53746 27167 ft 502 kts 54°
2026-05-07 16:11 29.77560 -12.50421 27448 ft 504 kts 54°
2026-05-07 16:12 29.79536 -12.47079 27695 ft 506 kts 54°
2026-05-07 16:12 29.81515 -12.43721 27975 ft 508 kts 54°
2026-05-07 16:12 29.83501 -12.40344 28193 ft 510 kts 54°
2026-05-07 16:12 29.85494 -12.36956 28470 ft 511 kts 54°
2026-05-07 16:13 29.87493 -12.33561 28739 ft 513 kts 54°
2026-05-07 16:13 29.89496 -12.30162 28989 ft 514 kts 54°
2026-05-07 16:13 29.91510 -12.26747 29242 ft 516 kts 54°
2026-05-07 16:13 29.93530 -12.23318 29490 ft 518 kts 54°
2026-05-07 16:14 29.95552 -12.19875 29739 ft 519 kts 54°
2026-05-07 16:14 29.97577 -12.16418 30000 ft 521 kts 54°
2026-05-07 16:14 29.99604 -12.12962 30312 ft 519 kts 54°
2026-05-07 16:14 30.01799 -12.09671 30606 ft 516 kts 45°
2026-05-07 16:15 30.04302 -12.06736 30893 ft 513 kts 41°
2026-05-07 16:15 30.06869 -12.03876 31168 ft 512 kts 40°
2026-05-07 16:15 30.09427 -12.01029 31530 ft 509 kts 40°
2026-05-07 16:15 30.11967 -11.98192 31894 ft 507 kts 40°
2026-05-07 16:16 30.14494 -11.95361 32208 ft 505 kts 40°
2026-05-07 16:16 30.17016 -11.92535 32500 ft 504 kts 40°
2026-05-07 16:16 30.19531 -11.89711 32797 ft 504 kts 40°
2026-05-07 16:16 30.22042 -11.86890 33060 ft 503 kts 40°
2026-05-07 16:17 30.24549 -11.84071 33332 ft 502 kts 40°
2026-05-07 16:17 30.27052 -11.81257 33612 ft 501 kts 40°
2026-05-07 16:17 30.29551 -11.78452 33873 ft 501 kts 40°
2026-05-07 16:18 30.34545 -11.72831 33986 ft 499 kts 40°
2026-05-07 16:18 30.39500 -11.67236 33990 ft 498 kts 40°
2026-05-07 16:19 30.44425 -11.61676 34006 ft 498 kts 40°
2026-05-07 16:19 30.49420 -11.56019 33984 ft 499 kts 40°
2026-05-07 16:20 30.54387 -11.50387 33985 ft 499 kts 40°
2026-05-07 16:20 30.59361 -11.44748 33987 ft 500 kts 40°
2026-05-07 16:21 30.64298 -11.39130 33995 ft 500 kts 40°
2026-05-07 16:21 30.69269 -11.33479 33997 ft 501 kts 40°
2026-05-07 16:22 30.74237 -11.27810 34009 ft 500 kts 40°
2026-05-07 16:22 30.79179 -11.22159 33984 ft 496 kts 40°
2026-05-07 16:23 30.84101 -11.16542 33984 ft 496 kts 40°
2026-05-07 16:23 30.89028 -11.10915 33985 ft 496 kts 40°
2026-05-07 16:24 30.93947 -11.05265 33990 ft 497 kts 40°
2026-05-07 16:24 30.98863 -10.99598 33989 ft 497 kts 40°
2026-05-07 16:25 31.03779 -10.93936 33985 ft 497 kts 40°
2026-05-07 16:25 31.08703 -10.88274 33990 ft 496 kts 40°
2026-05-07 16:26 31.13617 -10.82609 33984 ft 497 kts 40°
2026-05-07 16:26 31.18529 -10.76924 33983 ft 498 kts 41°
2026-05-07 16:27 31.23449 -10.71231 33978 ft 498 kts 41°
2026-05-07 16:27 31.28372 -10.65531 33985 ft 498 kts 41°
2026-05-07 16:28 31.33289 -10.59817 33983 ft 498 kts 41°
2026-05-07 16:28 31.38198 -10.54102 34003 ft 498 kts 41°
2026-05-07 16:29 31.43112 -10.48380 33992 ft 498 kts 41°
2026-05-07 16:29 31.47987 -10.42687 33991 ft 498 kts 41°
2026-05-07 16:30 31.52887 -10.36944 33984 ft 498 kts 41°
2026-05-07 16:30 31.57794 -10.31206 33985 ft 498 kts 41°
2026-05-07 16:31 31.62704 -10.25469 33991 ft 498 kts 41°
2026-05-07 16:31 31.67606 -10.19717 34000 ft 498 kts 41°
2026-05-07 16:32 31.72490 -10.13957 33995 ft 498 kts 41°
2026-05-07 16:32 31.77373 -10.08195 33981 ft 497 kts 41°
2026-05-07 16:33 31.82255 -10.02440 33989 ft 497 kts 41°
2026-05-07 16:33 31.87103 -9.96723 33977 ft 497 kts 41°
2026-05-07 16:34 31.91981 -9.90964 33986 ft 497 kts 41°
2026-05-07 16:34 31.96849 -9.85189 33997 ft 497 kts 41°
2026-05-07 16:35 32.01713 -9.79413 33978 ft 497 kts 41°
2026-05-07 16:35 32.06585 -9.73623 33974 ft 497 kts 41°
2026-05-07 16:36 32.11457 -9.67823 33973 ft 498 kts 41°
2026-05-07 16:36 32.16324 -9.62009 33971 ft 498 kts 41°
2026-05-07 16:37 32.21194 -9.56189 33970 ft 498 kts 41°
2026-05-07 16:37 32.26031 -9.50400 33966 ft 498 kts 41°
2026-05-07 16:38 32.30931 -9.44526 33978 ft 498 kts 42°
2026-05-07 16:38 32.35778 -9.38699 33976 ft 497 kts 42°
2026-05-07 16:39 32.40583 -9.32910 33980 ft 496 kts 42°
2026-05-07 16:39 32.45412 -9.27092 33976 ft 495 kts 42°
2026-05-07 16:40 32.50235 -9.21277 33968 ft 495 kts 42°
2026-05-07 16:40 32.55051 -9.15469 33969 ft 494 kts 42°
2026-05-07 16:41 32.59859 -9.09647 33958 ft 493 kts 42°
2026-05-07 16:41 32.64656 -9.03831 33965 ft 493 kts 42°
2026-05-07 16:42 32.69442 -8.98016 33977 ft 492 kts 42°
2026-05-07 16:42 32.74218 -8.92203 33975 ft 491 kts 42°
2026-05-07 16:43 32.78988 -8.86391 33970 ft 491 kts 42°
2026-05-07 16:43 32.83748 -8.80582 33972 ft 491 kts 42°
2026-05-07 16:44 32.88510 -8.74763 33987 ft 491 kts 41°
2026-05-07 16:44 32.93270 -8.68932 33972 ft 491 kts 42°
2026-05-07 16:45 32.98000 -8.63131 33970 ft 491 kts 41°
2026-05-07 16:45 33.02760 -8.57280 33968 ft 492 kts 42°
2026-05-07 16:46 33.07512 -8.51430 33970 ft 492 kts 42°
2026-05-07 16:46 33.12270 -8.45566 33967 ft 492 kts 42°
2026-05-07 16:47 33.17026 -8.39695 33967 ft 492 kts 42°
2026-05-07 16:47 33.22242 -8.34569 33970 ft 482 kts 27°
2026-05-07 16:48 33.27921 -8.30321 33966 ft 481 kts 27°
2026-05-07 16:48 33.33588 -8.26054 33970 ft 481 kts 27°
2026-05-07 16:49 33.39249 -8.21777 33971 ft 481 kts 27°
2026-05-07 16:49 33.44917 -8.17502 33954 ft 483 kts 27°
2026-05-07 16:50 33.50609 -8.13199 33938 ft 485 kts 27°
2026-05-07 16:50 33.56325 -8.08858 33943 ft 487 kts 27°
2026-05-07 16:51 33.62057 -8.04504 33957 ft 488 kts 27°
2026-05-07 16:51 33.67798 -8.00140 33965 ft 489 kts 27°
2026-05-07 16:52 33.73504 -7.95791 33977 ft 489 kts 27°
2026-05-07 16:52 33.79251 -7.91403 33980 ft 489 kts 27°
2026-05-07 16:53 33.84990 -7.87010 33975 ft 489 kts 27°
2026-05-07 16:53 33.90741 -7.82618 33977 ft 490 kts 27°
2026-05-07 16:54 33.96493 -7.78217 33977 ft 490 kts 27°
2026-05-07 16:54 34.02241 -7.73803 33988 ft 490 kts 27°
2026-05-07 16:55 34.07991 -7.69376 33988 ft 490 kts 27°
2026-05-07 16:55 34.13744 -7.64947 33983 ft 490 kts 27°
2026-05-07 16:56 34.19490 -7.60512 33981 ft 491 kts 27°
2026-05-07 16:56 34.28114 -7.53844 33993 ft 490 kts 27°
2026-05-07 16:57 34.33860 -7.49395 33977 ft 491 kts 27°
2026-05-07 16:57 34.39611 -7.44942 33971 ft 491 kts 27°
2026-05-07 16:58 34.45359 -7.40475 33984 ft 491 kts 27°
2026-05-07 16:58 34.51103 -7.35989 33973 ft 491 kts 27°
2026-05-07 16:59 34.56850 -7.31499 33989 ft 492 kts 27°
2026-05-07 16:59 34.62604 -7.27004 33979 ft 492 kts 27°
2026-05-07 17:00 34.68326 -7.22537 33972 ft 492 kts 27°
2026-05-07 17:00 34.74115 -7.18000 33981 ft 492 kts 27°
2026-05-07 17:01 34.79820 -7.13507 33987 ft 491 kts 27°
2026-05-07 17:01 34.85547 -7.08994 33967 ft 490 kts 27°
2026-05-07 17:02 34.91277 -7.04480 33968 ft 491 kts 27°
2026-05-07 17:02 34.97013 -6.99960 33972 ft 491 kts 27°
2026-05-07 17:03 35.01822 -6.96162 33971 ft 491 kts 27°
2026-05-07 17:03 35.07555 -6.91627 33989 ft 492 kts 27°
2026-05-07 17:04 35.13259 -6.87104 33978 ft 492 kts 27°
2026-05-07 17:04 35.19003 -6.82538 33974 ft 492 kts 27°
2026-05-07 17:05 35.24742 -6.77976 33974 ft 491 kts 27°
2026-05-07 17:05 35.30464 -6.73400 33970 ft 492 kts 30°
2026-05-07 17:06 35.35504 -6.67650 33974 ft 502 kts 49°
2026-05-07 17:06 35.39243 -6.60369 33970 ft 506 kts 57°
2026-05-07 17:07 35.42786 -6.52910 33958 ft 506 kts 57°
2026-05-07 17:07 35.46363 -6.45472 33958 ft 506 kts 56°
2026-05-07 17:08 35.50086 -6.38154 33943 ft 505 kts 54°
2026-05-07 17:08 35.53848 -6.30875 33948 ft 505 kts 54°
2026-05-07 17:09 35.57566 -6.23570 33954 ft 505 kts 55°
2026-05-07 17:09 35.61250 -6.16223 33966 ft 505 kts 55°
2026-05-07 17:10 35.64933 -6.08863 33953 ft 505 kts 55°
2026-05-07 17:10 35.68602 -6.01555 33950 ft 505 kts 55°
2026-05-07 17:11 35.72292 -5.94197 33945 ft 505 kts 55°
2026-05-07 17:11 35.75558 -5.86532 33946 ft 507 kts 62°
2026-05-07 17:12 35.78626 -5.78711 33946 ft 507 kts 62°
2026-05-07 17:12 35.81692 -5.70883 33934 ft 507 kts 62°
2026-05-07 17:13 35.84765 -5.63066 33943 ft 506 kts 61°
2026-05-07 17:13 35.87901 -5.55308 33956 ft 506 kts 60°
2026-05-07 17:14 35.91066 -5.47565 33963 ft 505 kts 60°
2026-05-07 17:14 35.94215 -5.39810 33969 ft 505 kts 60°
2026-05-07 17:15 35.97339 -5.32039 33980 ft 505 kts 60°
2026-05-07 17:15 36.00447 -5.24254 33969 ft 505 kts 60°
2026-05-07 17:16 36.03623 -5.16517 33956 ft 505 kts 59°
2026-05-07 17:16 36.06881 -5.08839 33932 ft 504 kts 59°
2026-05-07 17:17 36.10133 -5.01166 33948 ft 504 kts 59°
2026-05-07 17:17 36.13352 -4.93450 33943 ft 504 kts 58°
2026-05-07 17:18 36.17308 -4.86426 33953 ft 493 kts 41°
2026-05-07 17:18 36.22058 -4.80336 33945 ft 492 kts 40°
2026-05-07 17:19 36.26804 -4.74208 33933 ft 493 kts 40°
2026-05-07 17:19 36.31543 -4.68053 33934 ft 493 kts 40°
2026-05-07 17:20 36.36288 -4.61897 33940 ft 494 kts 40°
2026-05-07 17:20 36.41008 -4.55781 33941 ft 494 kts 40°
2026-05-07 17:21 36.45786 -4.49574 33954 ft 494 kts 40°
2026-05-07 17:21 36.50522 -4.43393 33947 ft 494 kts 40°
2026-05-07 17:22 36.55232 -4.37240 33942 ft 494 kts 40°
2026-05-07 17:22 36.59975 -4.31041 33943 ft 495 kts 40°
2026-05-07 17:23 36.64716 -4.24833 33945 ft 495 kts 40°
2026-05-07 17:23 36.69452 -4.18614 33948 ft 495 kts 40°
2026-05-07 17:24 36.74174 -4.12383 33947 ft 495 kts 40°
2026-05-07 17:24 36.78900 -4.06142 33947 ft 495 kts 40°
2026-05-07 17:25 36.83630 -3.99899 33947 ft 495 kts 40°
2026-05-07 17:25 36.88359 -3.93657 33942 ft 495 kts 40°
2026-05-07 17:26 36.93082 -3.87404 33978 ft 495 kts 40°
2026-05-07 17:26 36.97791 -3.81143 33941 ft 494 kts 40°
2026-05-07 17:27 37.02494 -3.74876 33934 ft 494 kts 40°
2026-05-07 17:27 37.07194 -3.68599 33934 ft 495 kts 40°
2026-05-07 17:28 37.11906 -3.62308 33946 ft 495 kts 40°
2026-05-07 17:28 37.16676 -3.56094 33949 ft 494 kts 39°
2026-05-07 17:29 37.21488 -3.49937 33976 ft 494 kts 38°
2026-05-07 17:29 37.26261 -3.43815 33966 ft 494 kts 39°
2026-05-07 17:30 37.31067 -3.37586 33966 ft 493 kts 39°
2026-05-07 17:30 37.35795 -3.31415 33969 ft 493 kts 39°
2026-05-07 17:31 37.40554 -3.25207 33966 ft 493 kts 39°
2026-05-07 17:31 37.45314 -3.19004 33985 ft 492 kts 39°
2026-05-07 17:32 37.50070 -3.12790 33975 ft 493 kts 39°
2026-05-07 17:32 37.54018 -3.07626 33967 ft 493 kts 39°
2026-05-07 17:33 37.59564 -3.00347 33969 ft 492 kts 38°
2026-05-07 17:33 37.64303 -2.94113 33973 ft 492 kts 38°
2026-05-07 17:34 37.69039 -2.87882 33991 ft 492 kts 38°
2026-05-07 17:34 37.73754 -2.81659 33952 ft 489 kts 38°
2026-05-07 17:35 37.78457 -2.75431 33952 ft 490 kts 38°
2026-05-07 17:35 37.83167 -2.69189 33960 ft 490 kts 38°
2026-05-07 17:36 37.87876 -2.62940 33978 ft 491 kts 38°
2026-05-07 17:36 37.92582 -2.56684 33980 ft 491 kts 38°
2026-05-07 17:37 37.97287 -2.50409 33999 ft 491 kts 38°
2026-05-07 17:37 38.01985 -2.44133 33996 ft 491 kts 38°
2026-05-07 17:38 38.06653 -2.37896 33989 ft 490 kts 38°
2026-05-07 17:38 38.11349 -2.31615 33996 ft 490 kts 38°
2026-05-07 17:39 38.16036 -2.25314 34006 ft 491 kts 37°
2026-05-07 17:39 38.20686 -2.18994 33964 ft 488 kts 40°
2026-05-07 17:40 38.24944 -2.12191 33969 ft 493 kts 43°
2026-05-07 17:40 38.29194 -2.05339 33979 ft 493 kts 43°
2026-05-07 17:41 38.33440 -1.98481 33982 ft 494 kts 43°
2026-05-07 17:41 38.37689 -1.91583 33993 ft 495 kts 43°
2026-05-07 17:42 38.41936 -1.84673 34009 ft 495 kts 43°
2026-05-07 17:42 38.46181 -1.77756 34008 ft 495 kts 43°
2026-05-07 17:43 38.50425 -1.70839 34007 ft 495 kts 43°
2026-05-07 17:43 38.54634 -1.63956 34000 ft 495 kts 43°
2026-05-07 17:44 38.58865 -1.57023 33998 ft 495 kts 43°
2026-05-07 17:44 38.63092 -1.50076 34006 ft 495 kts 43°
2026-05-07 17:45 38.67307 -1.43126 34011 ft 493 kts 44°
2026-05-07 17:45 38.71503 -1.36199 33995 ft 492 kts 44°
2026-05-07 17:46 38.75696 -1.29271 34000 ft 492 kts 44°
2026-05-07 17:46 38.79892 -1.22338 33999 ft 492 kts 44°
2026-05-07 17:47 38.84075 -1.15398 33992 ft 492 kts 44°
2026-05-07 17:47 38.88255 -1.08441 34001 ft 492 kts 45°
2026-05-07 17:48 38.92413 -1.01504 33976 ft 488 kts 46°
2026-05-07 17:48 38.96551 -0.94593 33976 ft 488 kts 46°
2026-05-07 17:49 39.00683 -0.87676 33974 ft 488 kts 46°
2026-05-07 17:49 39.04853 -0.80791 33972 ft 484 kts 41°
2026-05-07 17:50 39.09851 -0.75266 33985 ft 466 kts 24°
2026-05-07 17:50 39.15495 -0.71298 33976 ft 463 kts 21°
2026-05-07 17:51 39.21190 -0.67371 33956 ft 465 kts 21°
2026-05-07 17:51 39.26890 -0.63411 33956 ft 466 kts 21°
2026-05-07 17:52 39.32600 -0.59440 33953 ft 466 kts 21°
2026-05-07 17:52 39.37348 -0.56141 33974 ft 467 kts 22°
2026-05-07 17:53 39.43071 -0.52151 33985 ft 468 kts 22°
2026-05-07 17:53 39.49722 -0.47469 33982 ft 470 kts 24°
2026-05-07 17:54 39.54402 -0.43751 33984 ft 473 kts 27°
2026-05-07 17:54 39.59890 -0.39022 34005 ft 474 kts 28°
2026-05-07 17:55 39.65387 -0.34301 33997 ft 474 kts 27°
2026-05-07 17:55 39.70921 -0.29668 33990 ft 473 kts 27°
2026-05-07 17:56 39.76434 -0.25089 33980 ft 473 kts 27°
2026-05-07 17:56 39.81977 -0.20462 33997 ft 473 kts 28°
2026-05-07 17:57 39.87506 -0.15817 33989 ft 473 kts 28°
2026-05-07 17:57 39.93016 -0.11170 33984 ft 472 kts 28°
2026-05-07 17:58 39.98532 -0.06508 33978 ft 472 kts 28°
2026-05-07 17:58 40.04040 -0.01867 33815 ft 469 kts 29°
2026-05-07 17:59 40.06775 0.00443 33185 ft 468 kts 31°
2026-05-07 17:59 40.09495 0.02747 32729 ft 464 kts 31°
2026-05-07 17:59 40.12201 0.05041 32202 ft 462 kts 31°
2026-05-07 17:59 40.14891 0.07321 31688 ft 460 kts 32°
2026-05-07 18:00 40.17568 0.09593 31171 ft 458 kts 32°
2026-05-07 18:00 40.20230 0.11857 30672 ft 455 kts 33°
2026-05-07 18:00 40.22959 0.13935 30175 ft 453 kts 24°
2026-05-07 18:00 40.25900 0.15354 29645 ft 449 kts 14°
2026-05-07 18:01 40.28887 0.16461 29168 ft 445 kts 15°
2026-05-07 18:01 40.31855 0.17566 28688 ft 442 kts 15°
2026-05-07 18:01 40.34796 0.18669 28224 ft 438 kts 15°
2026-05-07 18:01 40.37713 0.19773 27757 ft 435 kts 15°
2026-05-07 18:02 40.43444 0.21939 26865 ft 428 kts 15°
2026-05-07 18:02 40.46297 0.23015 26437 ft 425 kts 15°
2026-05-07 18:02 40.49133 0.24083 26011 ft 423 kts 15°
2026-05-07 18:03 40.51944 0.25171 25545 ft 421 kts 19°
2026-05-07 18:03 40.54615 0.26742 25095 ft 420 kts 30°
2026-05-07 18:03 40.57000 0.28933 24777 ft 414 kts 42°
2026-05-07 18:03 40.58998 0.31580 24571 ft 405 kts 50°
2026-05-07 18:04 40.60846 0.34361 24184 ft 402 kts 50°
2026-05-07 18:04 40.62678 0.37121 23802 ft 399 kts 50°
2026-05-07 18:04 40.64497 0.39864 23417 ft 396 kts 50°
2026-05-07 18:04 40.66300 0.42585 22983 ft 393 kts 50°
2026-05-07 18:05 40.68086 0.45289 22539 ft 390 kts 50°
2026-05-07 18:05 40.69857 0.47972 22119 ft 386 kts 50°
2026-05-07 18:05 40.71618 0.50642 21622 ft 384 kts 49°
2026-05-07 18:05 40.73358 0.53283 21237 ft 381 kts 49°
2026-05-07 18:06 40.75087 0.55911 20866 ft 376 kts 49°
2026-05-07 18:06 40.76790 0.58501 20504 ft 373 kts 49°
2026-05-07 18:06 40.78488 0.61083 20146 ft 370 kts 49°
2026-05-07 18:06 40.80167 0.63639 19800 ft 368 kts 49°
2026-05-07 18:07 40.81840 0.66189 19450 ft 366 kts 49°
2026-05-07 18:07 40.83504 0.68725 19100 ft 364 kts 48°
2026-05-07 18:07 40.85160 0.71247 18754 ft 362 kts 48°
2026-05-07 18:07 40.86806 0.73758 18405 ft 360 kts 48°
2026-05-07 18:08 40.88441 0.76257 18033 ft 358 kts 48°
2026-05-07 18:08 40.90067 0.78744 17686 ft 357 kts 47°
2026-05-07 18:08 40.91683 0.81216 17345 ft 353 kts 48°
2026-05-07 18:08 40.93271 0.83652 17003 ft 348 kts 48°
2026-05-07 18:09 40.94846 0.86070 16678 ft 344 kts 48°
2026-05-07 18:09 40.96399 0.88454 16345 ft 341 kts 48°
2026-05-07 18:09 40.97921 0.90792 16014 ft 338 kts 48°
2026-05-07 18:09 40.99471 0.93174 15707 ft 336 kts 48°
2026-05-07 18:10 41.00966 0.95471 15392 ft 333 kts 49°
2026-05-07 18:10 41.02492 0.97823 15068 ft 331 kts 48°
2026-05-07 18:10 41.03987 1.00128 14753 ft 329 kts 49°
2026-05-07 18:10 41.05470 1.02412 14440 ft 325 kts 49°
2026-05-07 18:11 41.06939 1.04674 14131 ft 322 kts 49°
2026-05-07 18:11 41.07904 1.06161 13926 ft 320 kts 49°
2026-05-07 18:11 41.09811 1.09102 13499 ft 316 kts 49°
2026-05-07 18:11 41.11233 1.11305 13190 ft 314 kts 49°
2026-05-07 18:12 41.12646 1.13498 12895 ft 312 kts 49°
2026-05-07 18:12 41.14051 1.15680 12596 ft 310 kts 50°
2026-05-07 18:12 41.15313 1.17985 12304 ft 308 kts 56°
2026-05-07 18:12 41.16521 1.20328 12007 ft 307 kts 56°
2026-05-07 18:13 41.17720 1.22650 11716 ft 304 kts 56°
2026-05-07 18:13 41.18917 1.24963 11410 ft 303 kts 56°
2026-05-07 18:13 41.20106 1.27258 11139 ft 301 kts 56°
2026-05-07 18:13 41.21286 1.29541 10852 ft 299 kts 56°
2026-05-07 18:14 41.22459 1.31815 10565 ft 298 kts 56°
2026-05-07 18:14 41.23613 1.34057 10347 ft 290 kts 56°
2026-05-07 18:14 41.24747 1.36263 10015 ft 288 kts 56°
2026-05-07 18:14 41.25866 1.38437 9847 ft 283 kts 56°
2026-05-07 18:15 41.26978 1.40594 9696 ft 282 kts 56°
2026-05-07 18:15 41.28089 1.42747 9577 ft 283 kts 56°
2026-05-07 18:15 41.29200 1.44904 9401 ft 283 kts 56°
2026-05-07 18:15 41.30310 1.47062 9006 ft 282 kts 56°
2026-05-07 18:16 41.31417 1.49216 8596 ft 282 kts 56°
2026-05-07 18:16 41.32522 1.51366 8226 ft 281 kts 57°
2026-05-07 18:16 41.33519 1.53579 7845 ft 278 kts 71°
2026-05-07 18:16 41.33643 1.56095 7473 ft 275 kts 105°
2026-05-07 18:17 41.32800 1.58311 7129 ft 262 kts 127°
2026-05-07 18:17 41.31684 1.60119 6880 ft 244 kts 126°
2026-05-07 18:17 41.30717 1.61928 6637 ft 238 kts 123°
2026-05-07 18:17 41.29813 1.63763 6395 ft 237 kts 122°
2026-05-07 18:18 41.28929 1.65606 6136 ft 235 kts 122°
2026-05-07 18:18 41.28050 1.67444 5864 ft 237 kts 122°
2026-05-07 18:18 41.27165 1.69286 5552 ft 235 kts 122°
2026-05-07 18:18 41.26288 1.71106 5250 ft 233 kts 122°
2026-05-07 18:19 41.25413 1.72906 4943 ft 231 kts 123°
2026-05-07 18:19 41.24545 1.74687 4649 ft 229 kts 123°
2026-05-07 18:19 41.23682 1.76453 4340 ft 227 kts 123°
2026-05-07 18:19 41.22822 1.78209 4027 ft 227 kts 123°
2026-05-07 18:20 41.21976 1.79966 3738 ft 225 kts 118°
2026-05-07 18:20 41.21488 1.81917 3473 ft 223 kts 96°
2026-05-07 18:20 41.21567 1.83953 3375 ft 217 kts 77°
2026-05-07 18:20 41.22104 1.85764 3238 ft 207 kts 66°
2026-05-07 18:21 41.22704 1.87496 3146 ft 206 kts 66°
2026-05-07 18:21 41.23302 1.89223 2916 ft 205 kts 66°
2026-05-07 18:21 41.23893 1.90938 2657 ft 203 kts 66°
2026-05-07 18:21 41.24479 1.92636 2391 ft 201 kts 66°
2026-05-07 18:22 41.25052 1.94298 2144 ft 193 kts 66°
2026-05-07 18:22 41.25408 1.95331 1979 ft 178 kts 66°
2026-05-07 18:22 41.26060 1.97226 1654 ft 163 kts 67°
2026-05-07 18:22 41.26523 1.98571 1434 ft 159 kts 66°
2026-05-07 18:23 41.26979 1.99898 1225 ft 157 kts 66°
2026-05-07 18:23 41.27416 2.01176 1014 ft 149 kts 66°
2026-05-07 18:23 41.27823 2.02393 742 ft 141 kts 66°
2026-05-07 18:23 41.28229 2.03569 571 ft 140 kts 66°
2026-05-07 18:24 41.28628 2.04745 367 ft 140 kts 65°
2026-05-07 18:24 41.29038 2.05909 212 ft 139 kts 65°
2026-05-07 18:24 41.29442 2.07082 59 ft 139 kts 66°
2026-05-07 18:24 41.29819 2.08184 5 ft 112 kts 65°
2026-05-07 18:25 41.30059 2.08881 6 ft 41 kts 66°
2026-05-07 18:25 41.30143 2.09140 4 ft 21 kts 74°
2026-05-07 18:25 41.30148 2.09291 3 ft 14 kts 98°
2026-05-07 18:25 41.30118 2.09412 2 ft 13 kts 127°
2026-05-07 18:26 41.30050 2.09385 2 ft 13 kts 238°
2026-05-07 18:26 41.30010 2.09276 3 ft 14 kts 245°
2026-05-07 18:26 41.29970 2.09158 3 ft 14 kts 246°
2026-05-07 18:26 41.29928 2.09034 4 ft 15 kts 245°
2026-05-07 18:27 41.29886 2.08911 5 ft 15 kts 245°
2026-05-07 18:27 41.29839 2.08778 4 ft 17 kts 245°
2026-05-07 18:27 41.29790 2.08630 5 ft 18 kts 247°
2026-05-07 18:27 41.29753 2.08529 3 ft 19 kts 242°
2026-05-07 18:28 41.29697 2.08364 3 ft 14 kts 245°
2026-05-07 18:28 41.29656 2.08246 3 ft 15 kts 245°
2026-05-07 18:28 41.29612 2.08117 3 ft 16 kts 246°
2026-05-07 18:28 41.29566 2.07981 3 ft 17 kts 245°
2026-05-07 18:29 41.29517 2.07839 5 ft 17 kts 245°
2026-05-07 18:29 41.29466 2.07690 3 ft 17 kts 245°
2026-05-07 18:29 41.29415 2.07541 3 ft 18 kts 246°
2026-05-07 18:29 41.29368 2.07405 3 ft 11 kts 245°
2026-05-07 18:30 41.29327 2.07352 3 ft 9 kts 184°
2026-05-07 18:30 41.29270 2.07379 3 ft 3 kts 156°
2026-05-07 18:30 41.29243 2.07384 3 ft 4 kts 192°
2026-05-07 18:30 41.29220 2.07354 3 ft 5 kts 235°
2026-05-07 18:31 41.29188 2.07351 3 ft 5 kts 166°
2026-05-07 18:31 41.29156 2.07369 3 ft 2 kts 154°
2026-05-07 18:31 41.29148 2.07374 3 ft 0 kts 154°